Zurück zum Katalog

COSMOS 1375 DEB

AktivLEO
NORAD 17794·DEBRIS·🇷🇺 Russia

Gestartet Jun 6, 1982 von Plesetsk Cosmodrome

Loading…

Nächste Überflüge (nächste 24 Stunden)

TLE

AktuellSource: Space-Track

Epoche: Sep 14, 2026, 09:45 UTC

1 17794U 82055AL  26257.40675232  .00001078  00000-0  75040-3 0  9994
2 17794  65.8166  34.6929 0053223 260.4642  99.0417 14.02210968 64759

Verfolge COSMOS 1375 DEB in Echtzeit mit AllMySat

Download on the App Store